STARLINK-1357, 45565

Orbit data source: Space-Track

STARLINK-1357, 45565 is a payload satellite owned by SpaceX/Seattle (US) in LEO that was launched on Wed, 22 Apr 2020 UTC via an FALCON 9 launch vehicle from the Air Force Eastern Test Range (AFETR). Payload-class satellites include a variety of spacecraft equipped with specific instruments for various scientific and technological missions. These include communications satellites like Starlink; space stations such as the ISS; scientific satellites like the Hubble; Earth observation satellites from companies like Planet Labs, Umbra, and HawkEye 360; GPS; miniature CubeSats for education and research; and military/defense satellites.

Loading next visibility...
Identifier
45565, 2020-025AL
Orbit
LEO
Last TLE update
13 hours ago
Origin
Manufacturer
SpaceX/Seattle
Mission
Operational Commercial Communications
Bus & Motor
STARLINK, Unknown motor
Mass
260 kg wet, ~248 kg dry
Launch date (UTC)
2020-04-22 (5 years ago)
Launch vehicle
FALCON 9
Launch site
Air Force Eastern Test Range (AFETR)
Object type
Payload
Rocket body
Debris
Shape & HBR
Box + 1 Pan, 8.86 m
Radar Cross Section
13.562 m², Large (>1 m²)

Expand to show TLE details & history

TLE from 13 hours ago
0 STARLINK-1357
1 45565U 20025AL  25181.91668981  .00032244  00000-0  16688-2 0  9995
2 45565  53.0536 136.6773 0002388 115.2114 185.1534 15.15967313286822
Epoch: 2025-06-30T22:00Z
TLE epoch observation values (Epoch: 2025-06-30T22:00:01.999Z)
Latitude
-43.79094°
Longitude
-158.36148°
Altitude
534.409 km
Speed
7.594 km/s
True Right ascension
06h 03m 27s
True Declination
-43° 36' 49"
Sunlit
Object was in daylight at epoch
Visualization orbit readout
Latitude
-47.61901°
Longitude
-169.99976°
Altitude
535.871 km
Speed
7.594 km/s
Apparent Right ascension
07h 50m 40s
Apparent Declination
-50° 17' 32"
Sunlit
Object is in daylight
Visualization observer readout
Local Sidereal Time
22:16:00
Azimuth
124.465° SE
Elevation
-62.671°
Doppler factor
1
Orbital elements
Apogee altitude
519.962 km
Perigee altitude
516.669 km
Semi-major axis
6,896.452 km
Eccentricity
0.00024
Inclination
53.0536°
RAAN
136.6773°
Arg. of periapsis
115.2114°
True anomaly
Unknown
Mean anomaly
185.1534°
Eccentric anomaly
Unknown
Mean motion
3.7897 °/min
Orbital period
94.99 mins
BSTAR
0.0016688
Loading maneuver chart data...
Loading SW <> Apogee altitude chart data...
Loading historical data...
Loading historical data...
Loading historical data...
Loading historical data...
Loading historical data...
Loading historical data...
Loading historical data...

STARLINK-1357 Visibility forecast

Observer location: undefined°, undefined°

Span
Click to sort rows by Start time (UTC) header in descending order
Start Az.
Max El. time (UTC)
Max El. Az.
Max El.
End time (UTC)
End Az.
6 mins2025-07-01 23:46:31.522Z235.567° WSW2025-07-01 23:49:31.522Z25.418° NE42.308°2025-07-01 23:52:31.522Z47.728° ENE
4 mins2025-07-02 04:47:31.522Z358.425° N2025-07-02 04:48:31.522Z19.368° NNE19.404°2025-07-02 04:51:31.522Z71.26° E
6 mins2025-07-02 06:25:31.522Z308.042° NW2025-07-02 06:27:31.522Z296.814° NW43.196°2025-07-02 06:31:31.522Z133.066° SE
|